Theta_e
345 346 349 349 350 350 351 351 351 351 351 352 352 351 351 351 352 352 352 351 350 350 349 349 348 348 348 349 349 348 348 348 349 349 349 347 345 345 345 345 346 346 346 346 347 347 347 348 349 349 351 351 351 351 351 351 350 351 352 352 351 350 350 347 346 346 345 345 345 344 343 343 344 344 343 343 343 343 343 343 344 344 344 344 343
344 346 348 349 350 350 351 351 351 351 351 351 351 351 351 351 351 351 351 351 350 350 349 348 349 348 349 349 349 348 349 348 348 349 349 347 345 345 345 346 346 346 346 346 347 348 348 349 350 351 352 352 351 351 352 352 352 352 352 352 351 351 349 347 346 345 345 345 343 344 345 343 342 341 343 343 342 342 342 343 343 343 343 343 343
345 346 348 349 350 350 351 351 351 351 351 351 351 351 352 352 351 350 351 351 350 350 349 349 349 349 349 349 349 349 349 348 346 348 349 347 345 346 346 347 348 347 347 347 347 348 349 350 350 351 352 352 352 353 353 353 353 353 352 352 352 351 349 347 345 345 346 344 344 350 350 348 348 346 344 344 342 342 341 342 342 341 342 342 342
345 346 348 348 349 350 350 350 350 350 350 351 351 351 352 352 351 350 351 351 351 350 349 349 349 349 349 349 349 349 349 349 348 348 350 348 347 348 348 349 349 347 347 348 348 349 350 350 350 351 351 352 353 352 353 354 354 352 352 352 352 351 350 349 347 346 347 345 347 352 348 351 359 351 345 344 342 343 342 342 342 341 342 342 342
345 347 347 347 348 349 350 349 349 349 349 350 351 351 351 352 351 351 352 352 351 350 350 349 349 349 350 349 350 350 349 350 351 351 351 350 349 349 349 350 349 348 348 349 349 350 350 351 352 352 352 354 353 352 353 353 353 352 352 352 352 352 351 350 349 347 348 347 347 350 350 357 361 349 345 347 343 341 341 340 341 342 341 341 342
344 346 346 347 347 348 349 348 348 348 349 350 350 351 351 351 351 351 352 352 351 350 350 349 350 350 350 350 350 349 350 350 351 351 352 352 349 348 349 350 349 349 350 350 351 351 352 353 354 354 354 355 355 353 354 353 353 353 353 353 353 353 351 351 350 347 348 348 348 349 349 353 354 348 350 353 347 343 341 340 340 341 341 341 341
344 345 345 346 347 347 348 347 347 348 348 349 349 350 351 351 351 351 352 353 352 350 350 351 351 350 349 350 350 350 350 350 350 351 351 352 351 349 350 350 350 351 352 353 352 352 353 354 355 355 355 356 355 355 354 352 353 354 354 354 354 353 352 351 350 348 347 348 349 350 349 348 349 348 351 353 352 349 344 341 341 341 340 341 341
343 345 345 346 347 347 347 347 347 347 347 348 348 350 351 351 351 351 352 352 352 351 350 351 351 350 349 350 351 350 349 350 350 350 350 352 353 351 350 351 352 353 353 353 353 353 353 354 355 355 355 355 355 354 353 352 353 354 354 354 354 353 352 351 350 349 348 348 349 350 349 348 346 347 349 347 350 356 353 345 343 342 339 340 340
342 344 345 345 346 346 346 346 346 347 347 347 348 350 351 351 352 351 352 352 353 351 350 352 351 349 349 350 351 350 349 349 349 350 350 352 354 354 352 352 352 353 354 353 353 352 353 354 355 355 355 355 354 354 353 354 354 355 354 354 354 353 353 351 351 350 350 349 350 350 350 348 346 348 349 346 346 355 357 350 346 344 342 340 340
344 342 343 344 345 346 346 346 346 346 347 347 347 349 350 351 352 351 352 352 352 351 350 351 350 349 349 350 351 351 349 349 350 350 351 352 354 355 354 353 352 352 352 352 353 353 354 355 355 354 355 355 354 354 354 355 355 354 354 354 353 353 353 352 351 351 351 351 352 352 350 349 349 349 351 349 346 347 350 348 345 346 347 343 340
350 343 341 343 344 345 345 345 345 345 346 346 347 349 350 351 351 352 352 352 353 352 351 351 349 349 349 350 351 351 351 351 352 352 353 354 355 355 354 354 354 354 353 352 353 353 354 354 354 354 355 355 354 354 355 356 355 354 353 353 354 353 353 353 352 351 351 352 353 353 352 351 351 352 351 352 349 345 348 348 343 345 347 344 343
355 348 343 342 342 343 344 344 345 345 345 346 347 348 349 350 351 352 352 353 352 352 351 350 349 348 349 350 351 351 352 352 353 354 354 355 356 356 355 355 356 356 355 354 354 353 352 354 355 354 356 356 354 354 355 356 355 354 353 354 354 354 354 353 353 352 351 351 352 354 354 353 353 353 352 352 351 347 348 346 343 346 348 344 345
356 352 345 342 342 342 342 343 344 345 345 345 347 348 349 350 351 352 352 352 352 352 351 350 349 349 349 350 350 351 352 352 352 353 353 354 355 355 355 356 356 356 356 355 354 353 353 355 355 354 355 356 355 354 355 355 355 354 354 354 355 354 354 353 353 353 352 351 353 353 354 354 354 353 352 352 352 348 346 344 343 347 348 346 346
357 355 349 342 341 341 342 343 344 345 345 345 346 348 349 350 351 351 351 352 351 352 352 351 350 349 349 350 351 351 351 352 352 352 352 353 353 354 355 355 354 355 354 353 352 353 354 356 356 354 354 355 355 355 355 355 355 354 354 354 354 354 354 354 354 354 353 352 353 353 354 354 353 353 353 352 352 350 348 346 345 347 347 345 345
357 357 352 344 340 341 342 342 344 345 344 345 346 348 348 349 350 351 351 351 351 352 352 351 351 350 349 349 350 351 351 351 352 352 352 352 353 353 354 354 354 354 353 351 351 353 354 355 356 355 354 354 355 356 356 355 355 353 353 354 353 353 354 354 354 353 353 354 354 354 354 354 354 354 353 353 353 352 351 349 347 351 354 350 346
355 357 355 348 341 340 342 343 343 344 344 345 346 347 348 349 350 350 350 350 350 351 351 350 350 349 349 349 350 351 351 351 352 352 352 352 353 353 353 353 353 354 354 352 352 353 354 355 355 356 356 354 353 355 356 356 354 353 354 354 354 354 354 354 353 352 351 353 354 355 355 354 354 354 353 353 353 353 353 351 349 351 356 357 356
354 356 355 351 345 341 341 342 344 344 344 345 346 347 348 348 349 350 350 350 350 351 350 350 350 349 348 349 350 351 351 351 352 352 353 352 353 353 352 352 352 352 354 353 353 353 354 355 355 356 355 355 353 354 356 356 355 354 354 355 354 354 354 354 353 353 352 352 353 354 355 354 354 354 353 353 354 354 353 352 352 350 351 357 363
356 358 355 351 348 345 342 341 343 344 344 344 345 347 347 348 349 349 350 350 350 350 349 349 349 348 348 349 350 351 351 351 352 352 352 353 353 353 352 352 352 352 353 354 353 353 354 355 355 356 355 355 354 354 355 356 355 355 354 354 354 353 354 354 353 353 353 354 354 354 355 354 354 354 353 353 354 355 353 352 353 352 351 354 356
358 359 358 354 350 349 345 342 343 343 344 344 345 347 348 348 349 349 349 349 349 350 349 350 349 348 347 348 350 351 351 351 351 352 352 352 353 353 352 353 353 352 352 353 353 353 353 354 354 355 355 355 355 354 355 355 355 355 354 354 354 354 353 353 354 354 354 354 354 355 355 354 354 354 353 353 353 355 355 353 354 354 354 354 351
359 357 357 354 350 350 348 344 344 343 344 344 344 346 347 348 349 349 349 349 350 350 350 350 350 349 348 348 350 352 352 352 351 352 352 352 353 353 353 352 352 352 352 352 353 353 353 354 354 354 355 355 355 354 355 356 356 355 354 354 354 354 354 353 354 353 353 353 353 354 354 354 354 354 353 353 352 354 356 355 356 355 355 356 353
355 354 353 351 349 350 349 347 346 344 345 345 345 346 347 347 348 348 349 349 349 350 350 350 350 349 349 349 350 351 352 352 352 352 352 352 353 353 352 353 352 352 352 352 353 353 354 354 354 354 354 355 355 355 355 355 355 355 355 355 354 354 353 353 353 353 351 352 353 354 354 353 353 352 353 353 352 353 355 355 356 356 356 357 356
351 351 352 351 349 350 350 349 348 347 347 346 345 346 347 348 348 348 348 349 349 350 350 350 349 350 349 349 350 351 351 352 352 352 353 354 354 353 352 352 352 352 352 352 353 353 354 354 354 354 354 355 356 355 355 355 355 355 355 355 354 354 353 351 351 351 349 350 352 353 353 352 351 350 351 353 353 353 354 355 355 355 356 356 356
351 351 351 350 349 350 349 349 349 349 350 350 349 348 347 347 348 348 348 349 349 349 349 350 350 350 350 350 350 350 351 352 352 352 353 354 354 353 352 352 352 352 352 352 353 353 353 354 354 355 354 354 356 356 356 356 355 355 355 355 355 354 353 352 352 351 349 349 349 350 351 351 350 350 349 351 354 353 354 354 355 355 355 356 356
351 351 350 349 349 349 349 349 349 349 349 350 351 350 350 349 349 349 349 349 350 350 350 351 350 350 351 351 351 351 351 352 352 352 352 354 354 353 352 352 351 352 352 352 353 353 354 354 354 355 354 354 355 355 356 356 355 355 355 354 355 354 354 354 354 353 352 350 350 350 351 352 352 352 350 350 351 352 353 354 355 355 355 355 355
349 350 349 349 349 349 349 349 349 349 349 349 349 350 351 352 350 349 350 350 351 351 351 351 351 351 351 352 352 352 352 352 352 352 352 353 354 354 353 352 352 352 352 352 353 353 353 354 353 354 354 354 354 354 355 355 355 355 355 355 355 355 355 355 355 355 354 353 352 352 352 353 354 354 353 352 351 352 352 353 354 354 354 354 354
349 348 347 348 349 348 348 348 348 349 348 348 348 349 350 351 352 351 351 352 352 351 352 352 352 352 352 352 353 352 353 353 352 352 352 352 353 354 354 353 352 352 352 352 353 353 354 354 353 353 353 353 353 353 354 354 354 355 355 355 356 355 355 355 355 355 355 354 354 353 352 352 352 353 353 353 353 352 353 353 353 353 353 354 353
346 346 346 347 347 346 347 347 348 348 348 348 348 348 349 350 350 350 352 352 351 351 352 352 353 353 353 353 353 353 353 353 353 353 352 352 352 352 353 353 353 353 353 353 353 353 353 353 352 352 351 351 352 352 352 352 353 354 354 355 355 355 355 354 354 354 354 354 354 353 353 352 352 352 352 353 353 353 353 353 352 353 353 353 353
344 344 344 346 347 346 346 347 348 349 349 348 348 348 349 349 348 349 351 351 351 351 351 353 353 354 353 354 354 353 353 353 353 353 353 353 352 352 352 353 353 353 352 352 352 352 352 352 352 352 350 350 350 350 351 351 351 352 354 354 354 354 354 354 353 353 353 353 354 353 353 352 352 351 352 352 353 353 353 353 353 353 353 353 353
341 341 342 344 345 345 345 346 346 347 347 347 347 347 348 348 349 349 350 350 351 350 351 352 352 353 354 354 352 353 354 353 353 353 353 353 353 353 352 352 352 352 352 352 352 352 352 352 351 352 351 351 350 350 350 350 350 351 352 353 353 353 354 353 353 352 352 352 352 353 352 351 351 351 351 351 351 351 352 352 353 353 353 354 354
339 339 340 340 341 342 343 343 344 345 345 345 346 346 346 347 347 348 349 349 349 349 349 350 350 351 353 350 349 352 354 353 353 353 353 353 353 353 353 352 352 351 351 351 351 352 352 352 351 351 352 351 350 350 349 349 349 350 350 352 352 352 352 352 352 352 352 352 352 351 352 351 351 350 350 350 350 351 351 352 351 352 352 353 353
338 338 339 338 339 340 340 341 341 341 342 342 343 344 343 343 345 346 347 348 349 349 349 349 349 349 350 349 349 351 353 352 352 352 352 352 352 352 352 352 352 351 351 350 349 349 350 351 351 351 351 351 351 350 350 349 349 349 350 351 352 352 352 351 351 352 352 352 352 351 351 351 351 351 350 350 350 349 350 351 351 352 352 352 352
336 336 337 337 337 338 338 339 339 339 340 340 341 342 341 342 343 343 345 347 348 348 348 348 348 349 348 348 348 349 350 350 350 351 350 350 350 350 350 351 351 351 350 350 348 347 347 348 349 348 348 349 350 350 350 349 348 348 348 350 351 351 351 351 351 351 350 350 350 351 351 351 350 350 350 350 350 350 349 349 349 351 352 352 352
333 333 334 334 334 334 335 336 336 336 336 337 337 337 338 339 341 342 343 344 344 344 345 345 347 348 348 348 348 349 348 348 349 349 349 349 348 348 349 349 350 350 351 351 350 349 348 348 348 347 347 347 348 348 348 348 348 348 348 348 349 349 350 350 350 350 350 350 351 351 351 350 350 350 350 350 350 350 349 349 348 349 350 351 351
329 329 330 330 330 330 331 331 331 331 330 330 330 330 331 333 335 337 339 340 340 340 341 341 342 344 345 345 346 347 347 348 349 349 349 349 349 348 348 348 349 349 349 350 350 349 348 349 349 349 348 347 347 346 347 347 347 347 347 347 347 348 348 348 348 348 349 350 350 351 351 350 350 350 350 350 350 349 350 350 350 350 349 349 350
327 327 327 327 327 327 327 327 327 327 326 325 325 326 326 328 330 331 333 334 334 334 334 335 335 337 339 340 340 340 341 343 345 347 348 349 349 349 349 350 350 350 350 350 349 349 349 349 350 351 350 350 349 347 346 346 346 347 347 347 346 346 347 347 347 347 348 348 348 349 350 350 349 349 348 349 349 349 350 350 351 351 351 350 350
325 324 324 324 325 325 326 326 325 325 323 323 324 325 325 325 326 327 327 327 328 328 328 330 330 331 333 335 336 337 337 338 340 343 345 347 348 349 349 351 351 352 352 352 351 351 351 351 351 351 350 350 350 348 347 347 347 347 348 349 348 347 346 346 346 346 346 346 347 348 349 349 348 348 347 347 348 350 351 351 352 352 351 351 350
322 321 322 322 323 324 324 324 324 323 323 323 323 324 324 323 323 324 324 325 325 325 325 326 327 328 329 330 332 333 334 335 336 338 340 342 343 345 346 349 350 351 352 352 352 353 353 353 352 352 352 352 351 350 349 348 348 348 348 349 349 349 347 346 346 346 346 346 346 347 348 349 349 348 347 347 349 351 351 352 352 352 351 351 350
320 321 321 321 322 323 323 323 323 322 323 322 322 322 322 322 322 321 322 323 323 323 324 324 326 326 326 327 328 329 330 331 332 334 335 337 339 340 342 344 345 346 348 349 351 352 352 352 353 352 353 353 352 352 352 351 351 350 349 350 350 350 350 349 348 347 346 346 347 347 348 348 349 349 348 349 350 351 351 351 351 351 351 350 350
320 320 320 320 321 322 322 322 322 322 322 322 322 321 321 321 320 320 320 321 321 321 322 323 324 325 326 327 328 328 329 330 331 332 333 334 334 336 338 340 340 341 342 344 346 348 349 350 351 352 353 353 353 353 353 353 353 352 351 351 350 350 350 350 350 350 349 349 349 349 349 348 348 348 348 348 349 349 349 349 349 349 349 349 350
319 319 320 320 320 321 321 321 321 321 321 321 321 321 320 320 320 320 320 319 319 319 319 321 323 324 325 326 327 328 329 329 331 332 333 333 332 333 335 338 339 340 341 341 341 342 344 345 347 349 350 351 352 353 353 353 353 353 353 352 351 350 349 349 349 349 349 350 350 350 350 349 348 349 349 349 349 349 349 348 348 347 347 349 350
319 319 319 319 319 319 319 319 320 320 320 320 320 319 320 319 319 319 320 318 318 317 317 319 321 323 324 325 325 326 327 328 329 330 332 333 334 335 336 338 338 340 342 342 339 340 343 345 345 346 347 348 350 351 352 353 353 352 353 353 352 350 350 349 349 349 349 349 350 350 350 350 350 350 351 351 351 352 351 351 350 349 349 350 349
318 318 318 318 318 318 318 318 319 320 319 319 319 319 319 319 318 318 318 318 317 317 316 316 318 320 322 323 323 324 325 326 327 329 330 331 333 336 337 338 339 341 343 343 342 343 344 343 340 340 341 343 344 344 346 348 350 350 350 350 350 350 350 349 349 350 350 350 351 351 351 351 352 351 352 352 352 352 352 352 352 352 351 351 349
317 317 317 317 316 316 317 317 318 318 318 319 318 318 317 317 317 317 317 317 316 316 315 316 316 318 319 320 320 321 322 323 324 326 327 328 329 331 333 334 336 338 340 343 344 344 343 339 336 336 337 337 338 338 338 339 341 345 346 346 346 348 350 350 349 350 351 350 350 351 351 351 351 351 351 352 352 352 352 352 352 352 351 351 350
316 316 316 315 316 316 316 317 317 317 317 317 317 317 316 316 316 316 316 316 316 315 315 316 316 316 317 317 317 318 319 320 321 322 324 325 326 327 328 329 330 331 332 334 336 336 336 335 333 334 336 337 337 338 336 334 334 336 340 342 342 340 342 345 345 345 347 348 349 350 349 350 350 350 350 351 351 352 352 353 353 353 352 352 351
315 315 314 314 314 315 316 316 316 316 316 316 315 315 315 315 315 316 316 316 315 315 315 315 316 316 315 316 316 315 316 317 317 318 320 321 323 324 326 326 327 327 327 327 327 328 328 330 331 332 333 335 337 338 337 335 334 332 334 338 339 334 334 338 339 338 340 343 345 347 347 347 347 346 346 346 346 347 348 348 349 350 351 352 352
314 314 314 314 314 315 315 315 315 315 315 315 315 315 315 315 315 315 315 315 315 315 315 315 315 315 315 315 315 315 315 314 315 315 316 317 318 320 322 323 324 324 325 325 325 325 325 327 330 331 331 332 334 334 334 334 334 333 332 335 336 334 334 336 336 335 336 337 339 340 341 340 339 339 338 338 338 339 339 339 341 344 347 350 350
314 314 314 315 315 315 315 314 314 314 314 314 314 314 315 315 315 315 315 315 315 316 315 315 315 315 315 315 316 316 315 314 314 314 314 314 315 316 318 319 320 320 321 322 323 324 324 326 328 329 329 329 329 328 328 328 329 331 332 333 333 334 335 335 335 335 336 336 336 337 337 337 337 337 337 338 337 337 338 337 339 341 343 346 347
313 313 313 314 314 314 314 313 313 314 314 315 315 315 315 315 316 315 315 315 315 316 316 315 316 315 316 316 316 316 316 315 315 315 314 314 314 314 315 316 316 317 318 319 321 323 324 326 328 327 327 328 326 325 325 325 326 328 331 332 333 334 335 335 335 337 337 337 337 338 338 339 339 339 339 339 340 340 340 340 341 342 343 343 344
312 312 312 313 314 314 313 313 314 315 315 315 315 315 316 316 316 316 316 316 316 316 316 316 316 316 316 316 316 316 316 316 315 315 314 315 315 315 315 315 315 316 317 318 320 321 323 325 328 327 325 325 324 324 324 325 325 326 328 331 332 333 334 335 336 337 338 337 337 338 339 339 339 339 339 339 340 340 340 341 342 342 343 344 344
311 312 313 313 313 313 313 314 315 315 315 315 315 314 314 314 315 315 315 315 316 316 316 316 317 317 317 317 316 316 316 316 316 315 315 315 315 315 315 315 315 315 316 317 319 320 322 324 326 327 326 324 324 324 324 324 324 326 327 329 330 331 333 334 336 337 336 336 336 337 337 338 338 338 338 338 339 339 340 341 342 342 343 344 344
312 313 313 313 313 313 313 314 315 315 315 315 314 313 313 312 312 312 312 312 313 312 313 315 316 316 316 316 315 315 315 315 315 315 315 315 315 314 314 315 315 315 315 316 318 319 321 322 323 325 326 325 325 324 323 323 323 325 327 328 328 330 332 334 335 335 333 333 334 335 336 336 335 336 336 335 335 336 336 337 338 339 341 342 342
Wind_Speed
15 20 22 23 24 23 23 22 22 22 23 23 23 23 23 21 20 20 19 17 16 16 15 16 16 15 14 14 13 13 12 11 10 9 6 7 9 9 9 9 8 8 8 8 7 8 9 9 9 8 6 4 3 2 1 0 1 2 3 4 4 5 5 4 5 5 4 3 4 5 5 5 6 7 7 8 9 9 9 9 9 9 8 8 8
11 15 19 22 22 22 22 22 23 23 24 25 25 25 24 22 21 20 19 18 17 18 18 18 18 17 16 15 14 13 13 12 10 9 7 8 10 10 9 8 8 9 9 9 8 9 10 10 9 8 6 5 3 1 0 1 2 1 3 4 4 5 5 4 5 5 4 3 3 4 5 5 3 4 7 8 8 8 8 9 9 8 8 7 7
9 12 16 20 21 22 22 22 24 25 25 26 26 26 25 24 22 21 20 19 18 19 19 19 18 17 15 14 13 13 13 11 10 9 8 8 10 10 9 9 9 9 9 9 10 10 10 10 9 8 6 5 3 1 1 2 2 2 2 3 3 4 5 4 4 5 5 3 3 3 3 4 3 6 11 10 6 6 6 7 8 7 7 6 6
10 11 13 18 20 22 22 23 24 24 24 25 26 26 26 26 25 23 21 19 19 20 20 20 18 16 14 12 13 13 12 12 11 10 10 10 10 10 9 9 9 10 10 10 11 11 10 9 8 7 5 4 3 3 3 3 3 3 2 2 3 4 5 5 3 4 5 4 2 1 0 2 1 6 11 10 10 7 5 6 6 6 6 5 5
11 11 11 16 19 22 23 24 24 24 25 27 27 28 27 27 26 24 22 20 20 21 21 20 18 17 15 14 14 14 13 13 14 13 12 11 11 11 10 10 10 11 11 11 12 12 10 8 7 6 5 4 4 4 4 3 3 3 2 2 2 3 5 6 3 3 5 4 3 1 1 1 1 4 7 7 11 10 6 6 5 5 5 4 4
11 12 13 16 19 22 23 23 24 25 27 29 30 30 29 28 27 25 23 22 22 23 22 21 19 18 17 16 17 18 16 17 17 16 15 14 13 13 12 12 12 12 11 12 13 12 10 8 7 6 5 5 5 4 4 4 3 3 2 1 1 2 4 5 4 3 4 5 5 3 2 0 2 4 3 3 8 10 9 8 4 4 4 4 5
9 11 13 16 19 21 21 23 25 26 28 29 29 29 29 29 29 27 25 24 24 24 23 22 20 19 18 18 18 20 20 20 19 17 16 14 13 13 13 13 13 13 12 12 12 11 10 8 7 6 6 5 6 5 4 4 4 3 2 1 1 1 3 4 4 3 2 3 5 4 3 2 2 3 1 1 4 7 10 12 9 5 4 5 6
9 10 12 16 21 22 23 25 28 29 28 28 28 29 29 30 30 28 27 26 25 25 25 23 21 21 21 18 17 19 20 20 19 18 17 15 14 14 14 15 15 14 13 12 11 11 10 8 7 6 6 7 7 6 5 4 4 3 3 2 1 1 3 3 3 3 2 2 3 4 5 4 3 4 4 2 0 2 7 10 12 10 6 6 7
10 11 13 16 21 25 27 28 29 29 28 29 30 31 30 31 30 29 28 27 26 27 26 24 23 23 22 20 18 18 18 19 19 19 19 17 16 15 15 15 16 15 14 12 11 11 10 9 8 8 8 8 7 6 5 5 4 4 3 2 2 1 2 2 2 2 2 3 3 4 5 5 4 5 7 6 2 1 2 4 10 12 8 7 7
9 11 14 19 23 27 29 29 29 29 29 30 30 30 30 30 30 30 29 28 27 28 27 25 25 24 22 20 19 18 19 20 19 20 20 19 18 16 16 15 15 15 14 13 12 11 11 10 10 10 9 8 7 6 6 5 5 4 3 3 2 2 1 1 1 2 2 3 4 4 5 6 4 4 7 7 3 2 1 3 7 9 8 8 8
7 9 13 19 24 26 27 27 28 28 27 28 28 29 30 30 31 31 31 29 29 28 27 26 27 26 23 21 20 19 21 22 21 21 21 21 20 18 17 16 15 14 13 13 13 12 12 12 10 9 8 8 8 7 6 6 5 4 3 3 3 3 2 2 2 2 2 2 2 4 5 6 5 5 7 7 4 2 1 3 6 6 6 8 9
6 7 10 14 17 20 23 24 25 25 24 25 27 28 29 30 31 31 31 31 30 30 28 27 28 26 24 22 20 20 21 22 21 21 21 21 20 19 17 16 15 14 13 13 13 13 12 12 10 9 8 8 8 8 7 6 5 4 3 3 3 3 4 4 3 3 3 2 1 2 3 4 5 5 7 8 7 4 2 3 5 5 5 7 9
5 6 8 10 12 17 20 21 22 23 25 27 28 28 29 30 31 31 32 32 32 31 29 29 28 27 25 23 20 19 19 19 19 19 19 19 19 18 17 16 15 15 14 14 14 13 12 11 10 9 9 8 8 8 8 7 6 5 4 4 4 4 5 4 4 4 4 3 2 2 2 3 3 4 5 7 7 5 3 3 4 4 4 5 8
5 5 7 9 12 18 20 21 23 24 26 27 27 28 29 29 30 31 31 31 31 31 30 29 29 27 26 24 21 19 19 18 18 19 18 18 17 16 16 15 14 14 13 14 14 13 12 11 9 9 9 9 9 8 8 8 7 6 5 5 5 5 4 4 4 4 4 4 3 2 2 2 3 3 4 5 7 6 4 4 3 3 4 4 6
5 5 6 9 14 19 20 21 24 25 26 27 27 27 28 28 30 30 30 31 31 31 30 29 28 27 27 26 22 19 18 17 18 19 18 17 16 15 15 14 13 12 11 12 13 13 12 11 10 9 9 10 10 10 9 8 8 7 6 6 5 4 4 4 4 4 4 4 3 3 2 2 2 2 3 3 5 6 5 4 3 3 2 3 5
6 6 6 8 13 17 19 21 23 25 26 26 27 28 29 29 30 30 30 31 31 31 30 28 27 26 27 27 24 20 18 17 17 18 18 17 15 14 14 13 12 12 11 11 12 13 12 11 10 10 10 10 11 11 10 9 8 8 7 7 6 6 5 5 5 5 5 4 4 3 3 2 2 2 2 3 3 4 4 3 3 3 2 2 3
7 6 5 6 11 16 19 22 23 24 25 27 28 30 32 31 31 31 30 29 31 31 30 29 27 26 27 27 25 22 19 17 17 18 17 16 15 14 13 13 12 12 12 12 12 12 12 11 11 10 10 10 10 11 11 10 9 8 8 8 8 7 7 6 5 5 5 4 4 4 4 3 3 2 3 3 3 3 2 2 3 2 1 1 1
6 6 6 6 9 12 16 20 23 26 28 29 31 31 31 32 32 31 30 30 31 31 31 29 28 27 28 28 27 23 20 18 17 17 16 16 16 15 14 13 13 13 12 12 13 13 12 12 11 11 11 11 10 11 11 11 10 9 10 10 9 8 8 7 6 6 5 5 5 5 5 4 4 4 4 3 3 2 2 2 2 2 2 2 2
5 6 5 5 7 8 11 18 23 26 28 29 29 29 29 29 30 30 31 31 31 31 30 29 28 27 27 28 28 24 21 19 18 17 17 16 16 15 15 14 13 13 13 13 13 13 13 13 12 11 11 11 11 11 11 11 11 11 11 11 11 10 9 9 8 7 7 6 6 6 6 5 5 5 5 5 4 3 2 2 2 3 3 3 3
5 5 4 5 7 6 9 14 19 22 24 25 26 26 27 27 26 27 29 28 28 28 29 29 28 27 27 27 27 25 22 21 19 18 18 18 16 15 15 15 14 14 13 13 13 13 13 13 13 12 12 12 11 12 11 12 12 12 12 13 12 12 12 11 10 9 8 8 8 7 7 7 6 6 6 6 6 5 4 3 3 4 4 4 4
5 5 6 6 5 6 4 6 11 17 22 25 26 26 26 27 27 27 27 26 26 27 28 29 28 27 26 27 27 26 23 22 20 19 19 19 17 16 16 15 14 14 13 13 13 13 13 13 13 14 13 13 13 13 13 13 13 13 13 13 13 13 14 13 12 11 10 10 10 9 9 8 8 8 8 7 7 6 6 6 5 5 5 5 5
7 7 7 9 11 10 6 7 11 16 19 22 25 26 26 27 27 27 27 27 27 27 28 29 29 28 27 27 27 26 25 23 22 21 20 20 19 17 16 16 15 14 14 14 14 13 13 13 14 15 15 14 14 14 15 15 15 15 14 14 14 15 15 15 14 14 12 11 12 12 11 10 10 10 9 9 8 7 7 8 7 7 7 7 7
8 8 9 10 11 10 11 13 14 13 12 14 19 24 27 29 29 27 27 27 27 27 28 28 27 28 28 27 26 26 25 24 23 23 22 22 20 18 17 17 17 16 15 15 15 15 14 14 14 15 16 16 16 16 16 16 16 16 15 15 14 15 15 15 15 15 14 13 13 14 12 11 10 11 11 10 9 9 9 9 9 8 9 9 8
8 8 8 9 9 8 10 13 12 10 8 6 5 8 15 21 23 23 23 23 23 24 24 25 26 26 27 26 25 25 25 25 25 24 24 23 22 20 19 18 17 17 17 16 16 16 16 16 16 16 16 17 17 17 16 16 16 16 16 15 14 15 15 16 16 15 15 14 14 14 13 11 11 11 11 11 11 11 10 10 10 10 10 9 9
7 8 8 8 8 7 10 11 10 9 7 5 1 2 7 13 18 23 22 20 19 19 19 21 23 24 25 25 25 25 25 25 26 25 25 25 24 21 20 19 18 18 18 18 17 17 17 17 17 17 17 17 17 18 17 17 17 17 17 16 15 15 16 16 16 16 16 15 15 15 14 13 12 13 12 11 11 11 11 11 12 11 11 10 10
5 6 8 8 8 9 10 7 3 3 7 9 10 14 15 15 15 17 16 14 15 16 16 17 20 22 24 24 24 25 25 26 26 25 25 25 25 24 22 21 20 19 19 19 19 18 18 18 18 18 18 18 18 18 18 18 18 19 19 18 18 17 17 17 17 17 17 17 16 16 16 15 15 15 13 12 12 12 12 13 13 13 12 12 12
3 4 6 7 6 6 5 1 1 3 5 10 13 14 14 11 9 7 6 8 11 14 17 18 18 19 20 22 24 24 25 24 24 24 24 24 24 24 24 22 21 20 20 20 20 20 21 20 20 20 20 20 20 20 21 20 20 20 21 20 20 19 18 17 17 17 18 18 18 17 17 16 16 15 14 13 13 12 13 13 13 13 13 14 14
5 5 6 7 6 6 9 8 6 6 6 8 7 7 8 9 12 12 9 9 11 15 19 20 19 18 19 22 24 24 23 22 22 23 23 23 23 23 23 23 22 22 22 22 22 22 23 23 23 22 21 21 21 22 23 22 22 21 22 22 21 21 20 19 19 18 18 19 19 19 19 18 17 16 16 15 14 14 14 14 14 14 14 16 17
7 7 7 8 8 8 11 13 11 9 6 4 3 2 4 5 8 10 10 9 11 15 18 19 18 20 22 22 20 20 20 19 19 21 22 22 23 22 22 21 21 21 22 22 22 22 23 24 25 24 23 23 23 24 24 24 24 23 23 23 23 23 22 21 20 20 20 20 21 21 21 20 19 18 17 17 16 15 16 17 17 16 16 17 18
8 8 8 8 9 11 13 15 14 13 12 12 12 9 7 5 2 3 6 8 10 13 15 14 14 17 20 17 14 16 20 19 17 18 19 20 21 20 20 19 18 18 18 19 21 22 23 24 25 25 25 24 24 25 25 25 25 25 25 25 25 25 24 24 23 22 22 22 22 23 23 22 22 21 20 20 19 18 18 19 19 19 19 19 20
8 8 8 8 10 12 14 15 15 16 16 16 16 16 15 13 10 7 6 8 10 11 13 14 14 15 17 15 14 17 20 19 17 17 17 18 18 17 17 16 16 16 15 15 16 17 20 23 24 25 26 26 26 25 25 25 25 25 26 26 27 27 26 26 26 25 25 25 24 24 24 24 24 24 23 22 21 20 20 19 20 20 20 20 21
8 8 9 9 9 11 13 14 16 17 18 18 19 20 20 18 15 14 12 9 7 6 6 8 11 15 17 16 16 16 16 16 16 17 17 17 16 16 16 17 17 16 17 17 16 15 15 17 20 23 24 25 26 26 25 25 26 25 26 27 28 28 28 28 28 27 28 27 27 26 26 26 25 25 25 25 24 23 22 22 22 21 21 21 22
8 8 9 9 9 12 14 16 17 19 20 20 22 23 22 20 20 19 19 18 17 16 15 13 10 7 10 13 12 10 9 10 12 13 12 12 13 14 16 18 19 19 20 21 21 20 17 15 17 20 21 22 24 24 24 24 24 25 25 26 27 28 29 29 29 29 29 29 28 28 28 28 27 26 26 25 25 25 24 24 23 23 23 23 22
9 9 10 10 12 15 17 19 20 21 22 23 24 25 25 25 24 24 24 24 24 24 23 22 20 17 13 10 9 8 6 3 2 5 6 7 9 11 13 16 18 20 22 23 24 23 21 19 20 22 22 22 23 23 23 22 23 23 23 24 25 27 28 29 29 29 29 29 29 29 29 29 29 28 27 27 26 26 25 25 25 24 24 24 23
9 9 10 13 16 18 19 20 23 24 24 25 26 27 28 28 28 28 28 27 26 26 25 23 22 22 21 19 17 16 14 12 10 7 7 6 6 8 11 12 12 14 16 18 19 19 19 19 20 21 21 22 23 22 22 22 22 22 22 23 24 25 27 28 29 29 29 29 29 29 30 29 29 29 29 28 28 27 26 26 26 26 26 26 26
10 11 13 16 19 20 19 21 24 25 26 26 26 27 29 30 29 30 30 29 29 28 26 26 25 23 21 20 20 20 19 17 15 12 10 7 4 1 4 6 7 8 9 11 14 15 16 17 17 17 17 18 19 19 20 21 21 20 19 20 22 24 26 27 28 28 28 29 29 29 30 30 30 29 28 29 29 28 26 26 27 28 28 29 29
14 16 18 20 21 22 23 24 25 26 25 25 25 26 28 29 29 30 30 30 29 28 26 26 25 24 23 22 21 21 21 19 17 14 11 7 7 8 7 3 1 4 6 9 11 12 13 13 14 14 14 15 15 15 16 18 18 18 18 18 19 21 23 25 27 27 28 29 29 30 30 30 31 30 29 29 29 27 25 26 27 29 29 31 32
16 20 22 22 24 25 25 26 26 25 23 23 22 24 27 28 28 29 29 29 27 25 25 24 23 22 22 22 22 22 20 18 16 14 10 6 5 7 9 8 6 4 2 3 6 8 8 8 8 9 10 11 12 13 13 15 15 15 16 17 17 18 20 22 23 24 25 26 27 28 29 29 30 31 31 30 28 26 26 27 27 28 29 31 33
18 21 22 22 24 25 25 25 25 23 21 21 20 21 25 26 26 27 28 27 25 23 23 23 22 20 20 20 21 21 20 19 17 13 9 4 2 3 5 6 6 6 6 5 4 5 5 5 5 7 7 8 9 8 9 11 12 13 14 15 16 17 17 18 19 20 20 21 22 22 23 24 26 26 26 26 25 25 26 27 27 26 27 31 33
19 21 22 22 24 25 24 23 22 20 19 19 18 20 23 23 24 25 25 24 22 21 21 20 20 19 19 19 20 20 20 20 19 15 11 5 2 1 3 5 5 4 6 6 6 5 5 5 4 5 6 6 6 6 6 7 8 9 11 13 14 15 16 17 17 17 18 18 18 19 18 18 19 19 20 20 20 20 21 23 24 24 27 30 31
19 21 23 24 24 24 23 21 19 17 16 16 17 19 21 20 21 23 22 21 20 19 18 18 18 18 19 19 20 20 20 20 18 17 15 12 8 6 5 5 5 4 4 5 5 5 4 4 4 4 3 3 4 4 5 7 6 6 7 9 10 12 13 15 15 16 16 17 18 18 17 17 17 17 17 18 18 18 19 21 22 23 25 27 27
19 21 22 24 23 22 21 19 16 15 14 14 15 18 19 19 20 20 18 17 18 17 17 17 17 18 18 18 19 18 18 18 17 17 17 17 15 13 11 9 8 7 6 5 5 6 8 10 10 11 11 10 8 6 6 6 6 4 3 3 5 6 8 10 13 15 16 17 18 18 18 18 18 18 19 19 19 19 20 21 23 23 25 25 25
17 19 21 23 23 20 19 17 14 13 13 12 14 17 19 18 19 17 15 15 16 16 16 16 17 17 17 17 18 17 17 17 17 16 17 18 17 16 15 14 13 11 10 9 8 9 10 11 12 12 13 13 11 10 10 9 7 6 3 2 5 6 5 6 8 11 13 14 16 17 17 17 18 17 17 17 17 18 19 20 21 21 22 24 24
15 18 20 22 22 21 19 17 14 13 12 12 13 16 18 18 17 14 13 13 14 14 15 16 16 16 16 17 17 17 16 16 16 15 15 17 17 16 16 15 15 15 14 14 13 11 11 12 12 12 12 12 11 10 10 12 11 9 5 3 5 8 9 7 8 9 10 11 11 12 12 12 12 12 13 14 15 16 16 17 17 16 17 19 22
14 16 17 18 19 19 18 17 15 13 13 13 13 15 16 16 14 13 12 12 12 13 14 15 15 15 15 15 16 16 16 16 16 16 15 16 16 15 15 15 14 14 14 14 14 14 14 14 14 13 12 12 11 10 9 11 12 11 8 6 6 8 11 10 9 10 11 11 10 9 9 10 11 12 13 15 16 16 16 17 16 15 16 17 18
16 16 17 17 18 17 17 17 15 13 12 12 12 12 14 13 11 10 11 11 11 12 13 14 14 14 15 15 15 16 16 15 16 16 16 16 15 15 15 14 14 14 14 14 14 14 14 14 14 14 13 12 12 11 9 9 10 11 10 7 7 7 9 10 10 10 11 12 12 12 12 13 14 14 15 16 16 16 16 16 16 15 15 16 17
18 19 19 19 19 18 17 16 15 12 11 10 10 10 10 9 8 9 9 8 10 12 13 13 13 13 14 15 15 15 15 16 16 16 15 15 15 14 15 15 15 15 15 15 15 14 14 14 13 12 12 13 13 12 11 11 10 10 10 9 7 6 7 9 10 10 10 10 11 12 12 12 12 12 12 12 13 13 13 13 13 13 13 14 15
19 19 19 19 19 18 17 15 14 12 11 10 10 9 8 7 7 8 8 8 10 11 11 12 12 12 13 13 13 13 14 14 15 15 15 15 16 15 14 14 15 15 16 16 15 15 14 14 12 11 11 13 14 14 14 14 13 13 12 12 11 9 7 9 11 11 10 10 10 9 9 9 9 9 9 9 10 10 10 11 11 11 11 12 13
18 17 16 16 17 17 16 14 13 12 11 11 11 10 9 9 9 8 8 9 11 11 11 11 12 12 13 13 12 11 12 12 13 13 14 14 14 14 14 12 11 11 12 13 13 13 13 12 10 9 10 12 14 15 15 15 15 14 13 12 12 11 9 9 10 10 9 8 8 8 9 10 11 11 11 11 12 12 13 14 13 12 13 14 14
18 16 15 15 16 15 15 14 12 11 11 12 12 12 11 11 10 9 9 10 11 11 11 12 12 12 13 13 12 11 11 11 12 12 13 13 12 11 12 12 11 9 8 8 9 10 11 11 9 8 8 11 13 13 14 14 15 14 13 12 12 12 11 9 8 7 7 6 7 7 8 9 10 12 13 13 14 14 15 16 15 15 15 15 14
19 18 18 17 16 15 14 13 12 11 11 12 12 12 11 11 11 10 10 10 11 11 12 12 12 11 11 12 12 12 11 11 11 12 12 14 14 13 11 11 11 10 8 6 6 7 8 9 10 9 8 9 10 11 12 14 15 14 13 12 12 11 10 7 6 5 5 5 6 6 6 8 10 11 11 12 14 15 16 16 16 16 15 15 15
Wind_Direction
194 195 195 195 197 196 196 195 194 195 195 196 197 200 202 203 202 202 203 201 198 199 200 199 198 199 204 204 200 197 196 199 198 194 189 186 192 192 191 194 194 195 195 191 187 183 177 173 171 174 177 182 188 173 123 13 319 347 13 25 27 27 27 8 2 358 341 335 328 329 340 321 304 312 318 319 322 323 325 326 328 329 332 340 342
187 192 193 193 194 193 193 191 190 192 193 195 197 200 202 204 204 203 203 200 196 195 195 198 198 196 197 196 193 191 190 190 187 185 181 180 189 192 193 198 200 199 197 194 191 184 179 178 179 178 179 181 182 168 35 303 296 319 0 18 22 21 23 16 17 19 20 26 357 343 8 6 327 327 334 324 316 315 322 329 333 337 342 346 343
182 188 188 190 191 189 189 190 192 194 194 195 197 199 201 203 205 203 201 199 194 193 193 195 196 195 192 189 186 187 188 184 181 179 177 179 187 193 199 202 203 201 197 196 192 186 184 187 189 188 185 184 184 213 253 262 276 291 330 358 14 23 30 28 24 25 29 28 14 7 6 3 4 358 356 0 355 328 326 336 338 344 351 347 341
184 186 184 186 187 187 188 190 192 193 195 196 196 197 199 202 204 200 198 196 193 192 192 192 192 191 192 190 187 188 187 184 184 185 181 179 186 194 201 202 203 200 196 195 190 188 191 193 196 196 194 195 212 236 233 234 251 269 302 339 0 17 29 27 21 18 15 3 10 66 332 355 26 340 345 8 20 359 333 335 336 339 345 340 335
184 185 183 183 184 188 190 190 190 191 194 197 198 198 199 202 203 199 194 192 192 191 191 191 191 194 198 200 198 196 195 194 195 196 192 188 189 193 196 196 196 194 194 194 191 193 194 193 195 197 198 209 226 233 223 223 236 252 272 314 352 10 19 17 20 23 21 30 57 85 358 8 227 316 330 355 13 18 2 337 325 321 323 317 317
185 184 182 182 185 188 190 190 188 191 196 198 199 199 201 203 202 198 193 191 191 191 191 193 195 198 200 202 200 196 197 200 201 199 196 193 190 190 189 190 191 192 194 196 196 198 197 196 199 200 204 216 225 226 226 234 235 235 251 279 339 12 12 10 23 34 40 55 56 45 27 19 270 319 341 338 359 19 22 12 355 317 304 297 308
188 185 181 182 185 185 188 190 190 193 197 199 199 199 200 202 201 197 194 192 191 190 193 197 198 199 199 204 205 200 200 204 204 200 197 194 192 192 191 188 190 193 196 199 202 204 203 204 207 209 215 222 227 231 239 244 232 228 251 275 309 21 8 5 23 34 61 63 40 35 41 30 324 344 24 314 344 4 17 29 33 2 319 305 310
186 185 183 184 184 185 188 191 193 196 197 196 197 198 199 201 201 198 196 194 192 191 194 200 201 198 198 204 209 208 209 209 207 204 202 200 197 197 196 193 193 196 199 203 206 211 213 214 219 226 230 229 231 235 240 234 221 228 251 274 286 358 358 357 19 28 50 47 26 39 38 32 58 67 44 24 91 334 358 19 21 12 354 326 320
186 184 186 186 186 188 189 192 195 196 196 196 198 198 199 200 200 199 198 196 195 193 195 202 202 198 198 202 206 210 214 213 209 208 209 206 203 202 201 200 199 200 204 207 211 214 217 221 227 231 230 229 230 232 227 217 215 229 244 261 268 291 332 343 4 16 33 32 21 32 33 36 70 64 32 27 66 41 344 348 360 5 2 347 334
192 187 187 187 188 191 191 192 194 195 196 197 198 197 197 199 199 199 199 198 197 196 197 201 202 200 199 200 203 207 210 212 209 209 210 208 207 207 205 204 203 203 206 210 215 217 219 223 226 226 223 223 224 223 217 213 217 225 231 237 240 251 281 302 319 335 7 25 29 30 32 41 53 33 13 16 28 29 351 303 339 354 348 347 351
192 190 188 187 189 192 192 192 193 195 196 195 195 196 197 197 197 198 200 200 199 199 200 202 202 203 203 201 202 203 204 207 206 207 208 207 208 208 207 206 205 205 207 210 214 217 219 221 223 222 220 220 220 217 215 216 222 224 226 228 229 245 264 280 279 278 305 348 25 34 38 43 44 26 7 3 352 333 319 306 332 348 337 343 356
180 186 184 181 183 189 191 192 193 191 192 194 195 197 197 197 196 196 198 199 199 199 201 202 203 206 208 206 205 204 203 204 204 205 206 206 208 209 208 208 208 209 210 212 212 212 214 218 221 223 223 223 220 218 218 220 228 235 239 239 239 255 272 279 268 256 265 280 316 15 37 40 31 22 8 359 346 324 296 297 325 347 338 340 357
170 179 179 176 178 185 188 189 189 189 192 195 196 197 197 197 197 196 197 198 199 199 201 203 205 209 210 210 210 209 208 208 209 209 209 210 211 210 210 211 212 213 214 214 211 208 211 215 221 226 227 227 224 222 225 226 236 249 258 252 252 266 277 276 261 249 253 256 264 302 1 18 15 16 10 4 359 345 307 299 322 343 324 328 356
162 174 179 181 182 185 186 185 186 190 194 196 196 197 198 199 199 199 199 199 199 201 202 205 208 211 213 213 214 215 216 217 219 219 218 217 217 216 217 218 218 219 220 217 211 208 213 217 226 233 233 233 231 230 233 233 240 253 261 260 261 265 271 272 267 260 256 257 259 273 311 342 356 18 20 12 11 10 350 321 330 351 331 325 349
159 171 182 187 188 186 184 184 187 192 194 195 196 197 198 200 201 201 201 201 201 203 205 208 211 212 213 214 217 220 223 225 228 229 227 225 225 225 225 225 226 229 230 225 217 214 216 221 231 239 240 241 238 236 239 239 243 253 254 254 260 259 262 272 273 264 256 255 256 258 278 307 327 359 10 6 6 9 7 356 359 10 359 336 340
162 171 182 187 188 185 184 185 188 192 194 195 196 197 199 201 203 204 205 204 205 206 208 211 212 213 212 214 218 222 226 230 232 231 230 231 233 234 233 233 232 235 240 236 226 220 220 226 237 242 244 245 241 239 241 241 244 253 252 251 255 258 264 274 273 260 253 255 257 259 265 275 287 319 340 342 345 350 358 6 9 21 35 354 334
169 168 170 173 181 184 185 187 189 191 193 196 198 199 201 202 204 205 206 206 207 208 210 212 213 214 214 215 219 221 224 230 232 230 231 233 237 239 239 240 239 241 244 241 234 228 227 233 241 245 246 245 243 240 240 241 246 255 259 257 257 260 266 268 265 258 255 258 259 258 262 268 274 285 314 326 327 333 339 340 348 4 31 8 316
149 142 144 149 167 182 186 187 191 194 196 198 200 202 202 203 205 205 206 208 209 210 211 213 214 216 216 216 218 221 222 226 230 231 232 235 238 239 239 240 242 243 246 245 240 236 237 241 246 249 249 248 245 241 239 242 250 259 265 264 260 262 264 260 259 259 256 258 258 253 256 264 269 276 293 303 301 306 305 311 329 329 325 313 248
125 135 143 131 130 156 181 190 196 198 199 200 200 201 202 203 206 207 209 212 212 211 212 214 216 218 219 219 219 221 222 224 228 231 233 235 237 239 238 240 243 245 247 247 244 244 246 248 250 253 253 251 248 245 244 249 257 265 269 269 267 267 263 258 259 262 258 258 256 249 249 254 263 270 278 282 278 275 275 283 307 310 310 306 277
140 135 112 84 95 132 177 192 199 199 200 201 201 200 201 203 206 208 211 213 212 212 212 214 217 220 221 222 222 223 224 225 228 232 235 235 236 239 240 241 244 245 244 245 246 248 251 253 254 256 258 257 252 249 251 256 262 267 270 271 272 271 268 263 262 263 260 257 256 253 248 248 256 264 269 269 264 262 264 270 287 297 302 308 298
128 111 92 95 142 186 173 171 194 199 200 201 201 200 200 202 206 208 211 212 212 212 213 215 218 221 222 223 223 225 225 226 228 234 237 236 235 238 240 242 244 242 242 244 246 248 252 255 255 258 261 263 259 257 258 261 264 267 269 271 272 272 270 269 266 262 259 256 255 256 252 249 253 258 261 262 258 255 256 262 270 280 290 302 304
123 124 124 146 177 184 143 145 189 199 198 198 198 198 200 204 207 209 211 213 214 214 215 217 218 221 223 224 225 226 227 228 229 233 236 235 235 238 240 241 242 242 243 246 248 251 254 256 257 260 264 266 267 265 264 264 265 265 266 266 268 269 268 269 267 263 260 257 256 258 257 254 254 256 256 256 255 253 251 257 263 268 274 282 288
132 136 146 162 166 153 150 173 195 200 193 193 196 196 201 207 209 209 211 214 215 216 217 218 219 221 223 223 224 226 228 230 231 233 234 234 235 237 240 242 243 243 245 247 251 254 255 256 260 263 265 266 268 268 266 265 263 263 264 264 265 267 267 267 267 265 263 259 257 260 259 256 256 258 257 255 255 254 251 253 259 265 268 270 276
136 143 150 157 143 136 165 186 199 206 198 193 196 195 205 212 211 212 218 219 218 218 219 219 220 222 223 223 223 225 228 230 232 234 235 234 235 237 239 242 244 245 246 249 253 256 255 255 258 262 264 264 264 265 265 264 261 260 262 262 263 266 269 270 269 268 268 265 262 261 260 258 262 265 263 260 257 255 255 255 259 264 267 269 275
137 144 139 135 136 163 198 206 208 202 174 145 111 211 214 215 213 215 221 222 218 219 221 223 224 224 223 223 223 224 227 230 233 235 235 235 235 237 239 241 243 245 247 250 253 255 254 253 254 258 262 263 264 264 264 263 262 260 261 262 262 264 268 271 273 274 273 272 269 267 267 268 271 274 274 273 269 264 263 263 264 267 269 272 279
151 143 131 132 147 174 199 221 233 121 126 154 188 206 211 215 215 215 219 218 214 216 220 227 231 229 226 225 223 224 227 229 233 236 237 238 237 238 239 240 242 245 247 249 253 256 256 255 255 258 261 263 263 263 264 264 264 263 262 263 264 265 267 269 272 275 276 276 274 272 274 275 276 279 282 284 283 279 276 274 272 273 276 278 281
123 101 113 128 137 141 136 123 129 147 184 202 207 213 218 225 234 233 226 216 213 214 216 224 231 230 228 227 224 224 227 229 232 235 238 240 240 241 241 242 243 245 247 249 252 256 259 260 261 261 262 264 264 263 264 264 264 263 262 262 264 266 266 267 269 271 274 275 274 274 274 275 276 278 281 284 286 285 282 280 277 278 281 284 287
73 70 93 114 113 93 79 83 117 156 199 216 215 219 219 224 232 233 226 219 218 218 216 218 220 219 223 228 225 223 225 227 230 233 236 239 240 240 242 245 248 249 251 253 256 259 263 265 265 265 265 266 265 265 264 263 263 262 260 260 262 265 266 267 267 267 269 270 272 272 272 272 274 275 277 279 280 282 282 279 277 278 281 285 287
69 66 72 85 87 80 76 78 89 101 106 113 120 171 200 212 229 227 221 221 224 223 218 212 210 212 217 221 220 218 219 223 227 231 235 238 239 239 240 243 248 252 255 258 260 262 264 266 267 267 267 267 266 265 265 265 264 263 261 260 260 263 265 267 268 267 267 268 270 271 270 270 272 273 275 276 275 277 278 278 277 277 278 281 283
72 68 65 70 73 72 71 69 71 75 76 76 76 82 98 101 107 174 195 211 220 222 220 213 208 215 219 216 214 216 216 220 226 230 232 235 237 238 238 239 242 247 253 258 260 263 264 266 269 270 269 267 266 267 268 269 268 266 265 263 262 263 265 266 268 269 269 270 271 272 273 273 274 275 275 276 276 276 276 278 280 279 279 281 282
71 69 66 66 69 70 68 65 64 64 67 70 72 75 78 77 74 88 140 195 215 223 228 225 217 220 223 219 221 224 220 220 227 232 234 235 235 237 239 240 240 241 244 247 252 259 263 266 268 269 270 269 267 269 270 271 272 270 267 265 264 265 266 266 267 268 270 272 273 275 276 276 276 277 277 278 279 280 280 281 282 283 284 284 283
73 72 70 66 65 68 68 65 64 64 64 66 70 72 71 69 69 76 99 134 161 170 190 205 206 217 228 228 229 234 234 234 239 242 243 244 244 245 244 243 243 243 243 241 241 245 254 264 266 266 268 269 268 270 271 272 273 272 269 267 265 266 267 267 268 268 269 272 274 276 278 278 278 278 278 279 280 281 282 281 281 282 283 283 283
79 77 75 68 63 67 69 68 67 65 64 65 69 71 68 67 69 71 78 85 85 84 82 82 99 152 206 216 220 229 237 244 249 251 253 252 251 252 251 249 248 247 246 244 242 240 241 254 266 266 266 268 269 270 271 272 273 274 272 268 266 267 267 268 269 270 271 272 273 275 278 279 281 281 280 281 281 283 285 284 283 282 279 279 278
87 83 80 75 70 70 70 72 72 70 70 70 70 71 71 71 71 70 71 71 70 69 67 65 67 74 91 122 138 134 128 136 202 229 239 247 248 248 249 249 249 250 251 250 248 244 241 251 265 266 263 265 268 269 271 271 272 274 274 270 267 267 267 268 270 271 272 273 274 275 276 280 283 284 283 283 283 285 286 287 286 285 284 283 281
92 88 86 85 81 77 74 74 76 76 74 72 71 72 73 71 70 69 68 68 67 66 63 61 61 62 69 81 89 92 90 86 88 112 147 178 215 235 238 239 243 250 255 255 252 249 249 255 264 265 264 266 267 268 269 269 270 272 274 272 269 266 265 266 267 269 271 273 274 274 274 278 282 284 285 285 285 285 285 285 286 286 287 288 287
102 96 91 88 86 84 81 80 81 80 77 74 73 74 73 70 69 68 67 67 66 63 59 57 58 59 62 66 72 76 77 76 81 96 118 134 131 154 219 221 225 232 235 235 236 238 243 249 254 257 262 265 268 269 268 268 269 272 274 273 271 268 267 265 266 268 269 272 274 274 273 275 278 281 283 284 285 284 284 284 285 287 289 290 290
100 97 93 91 91 90 88 85 82 80 77 75 75 76 74 70 66 65 65 64 63 60 58 58 57 58 59 60 64 68 70 72 78 86 95 96 72 62 70 92 176 227 225 228 235 236 238 243 245 247 253 258 263 266 267 268 269 271 273 276 276 274 271 269 269 270 269 270 271 272 272 273 275 278 281 283 285 285 285 285 286 287 289 289 291
97 97 94 92 92 91 90 88 84 80 78 76 75 74 72 68 64 62 63 62 59 58 59 60 59 59 60 61 62 65 66 69 74 79 82 74 57 62 69 70 57 20 319 259 256 257 256 257 256 253 254 256 259 262 264 265 265 263 266 271 276 278 277 276 277 277 275 273 274 274 273 273 274 277 280 282 284 283 283 284 284 285 286 287 290
92 94 92 90 91 90 88 86 83 81 80 79 76 73 71 67 63 62 61 59 58 57 58 60 60 60 60 61 63 64 63 63 66 70 72 55 5 38 65 69 55 22 360 353 339 314 296 290 283 272 264 262 264 267 271 271 267 263 261 262 267 271 273 275 279 282 281 281 280 280 279 277 277 279 281 282 282 282 281 282 283 282 281 282 286
91 91 90 88 87 85 80 76 76 78 80 79 76 72 69 67 65 64 61 58 57 57 58 59 60 60 60 60 63 65 65 66 68 73 81 97 142 126 65 61 62 39 5 360 1 352 334 320 305 283 270 269 271 274 287 291 281 270 266 264 265 269 272 274 277 279 280 281 282 284 286 287 286 285 285 285 283 282 281 280 279 277 275 278 285
95 95 95 90 86 83 79 75 74 76 75 74 73 70 67 63 61 62 61 59 57 55 56 58 58 60 61 60 61 63 65 66 69 73 79 84 90 91 78 67 70 64 38 23 18 17 17 19 17 6 350 336 312 296 294 292 288 289 285 278 276 277 279 283 284 284 285 284 283 285 289 292 293 291 289 288 285 284 282 280 278 278 279 282 286
102 101 100 96 90 86 84 81 79 78 75 73 74 73 69 63 58 56 57 59 57 55 56 58 59 59 59 57 57 58 60 60 60 63 68 68 68 71 75 76 75 70 62 54 51 60 66 61 51 47 47 47 40 20 347 312 297 310 329 318 305 297 291 293 292 291 292 291 290 291 291 291 292 290 288 287 286 284 282 281 281 282 282 284 285
116 113 110 104 97 91 87 84 81 80 78 76 77 76 72 66 60 55 52 52 52 54 56 59 60 59 57 55 53 52 54 55 54 57 62 63 64 67 70 72 72 69 67 65 63 64 60 51 43 45 50 52 49 37 20 0 339 327 329 19 24 9 342 318 307 300 298 297 293 291 289 286 286 287 287 286 286 284 283 283 285 286 286 285 284
122 120 116 108 102 98 94 90 87 83 81 80 82 81 76 69 63 57 51 45 43 45 51 54 56 55 54 52 50 48 48 49 49 51 55 58 59 62 64 66 67 65 62 58 55 51 47 41 37 38 44 50 50 41 27 18 9 355 331 323 9 12 359 342 334 326 318 311 301 291 287 287 288 289 291 291 289 288 287 287 288 290 290 287 283
119 116 112 107 106 105 101 95 89 85 82 78 79 80 77 71 65 60 54 48 43 42 46 49 50 49 47 45 42 40 40 42 43 44 46 47 47 50 53 54 55 55 51 46 43 38 35 33 30 28 32 41 47 46 37 27 20 12 352 304 300 344 351 338 326 322 319 319 316 306 299 300 300 298 297 294 292 290 289 289 291 294 295 294 291
124 120 118 117 115 113 109 102 94 88 82 76 70 70 71 70 67 61 54 50 51 53 54 54 52 48 44 40 36 31 28 29 32 36 40 42 40 40 41 41 40 41 38 33 30 28 25 23 23 24 27 33 42 48 43 32 23 17 7 332 297 321 344 336 327 322 315 310 310 308 308 307 305 303 300 297 294 292 291 291 293 296 298 300 302
138 136 132 128 123 118 114 110 103 95 89 80 69 63 62 61 60 59 55 51 54 59 61 60 58 53 47 42 38 34 29 26 24 24 27 32 32 32 32 29 25 24 23 22 19 17 16 14 15 21 25 28 32 31 23 19 16 11 7 355 333 328 338 337 336 337 329 321 316 313 311 308 305 303 302 301 303 304 305 306 307 309 310 309 308
149 143 136 130 126 123 119 115 110 105 99 91 81 73 66 62 63 63 60 58 59 59 59 59 58 56 52 46 43 41 38 34 28 22 20 21 22 23 25 27 23 16 11 11 11 11 9 4 2 10 18 18 18 13 5 2 1 356 353 351 346 341 338 339 342 343 339 333 328 325 328 331 331 330 329 331 334 335 335 334 331 329 330 329 326
146 140 135 130 127 126 123 119 115 112 107 100 93 87 79 74 73 69 65 66 64 60 58 56 53 52 50 48 46 44 41 35 28 21 17 16 16 17 18 20 23 19 10 3 1 4 4 357 352 358 4 2 3 3 359 353 349 346 342 340 340 340 337 338 342 342 339 338 341 352 3 5 4 5 3 358 353 352 352 350 347 346 347 348 346
142 140 139 134 131 130 127 123 121 121 115 107 99 92 83 76 73 68 66 67 65 60 57 53 49 47 45 43 43 41 38 33 27 20 12 6 6 10 14 13 12 13 10 1 356 358 359 355 349 346 349 351 354 357 357 351 344 338 332 328 328 330 332 335 339 341 343 352 5 15 20 18 15 15 13 6 360 359 359 357 355 355 356 354 351
150 147 143 139 138 137 132 127 128 126 118 110 101 91 81 73 69 66 65 64 62 58 57 53 48 44 41 37 35 33 31 28 25 21 13 4 357 356 2 8 6 2 359 353 347 350 356 357 352 343 334 338 348 355 355 349 342 336 329 320 317 319 322 325 333 345 0 17 24 25 24 19 15 13 9 0 356 358 359 356 356 359 1 0 358